GW2980 Weather Reports


Display with metric or nautical units.
time (UTC)temp
F
wind
direction
speed
MPH
gust
MPH
rain 1hr
in
rain 24hr
in
rain mn
in
humidity
%
barometer
mb
20260502152136 69 0.0 0.0 0.00 0.00 0.00 52 949.0
20260502151835 69 0.0 0.0 0.00 0.00 0.00 52 949.0
20260502151235 70 0.0 0.0 0.00 0.00 0.00 52 949.0
20260502150936 71 0.0 0.0 0.00 0.00 0.00 51 949.0
20260502150636 72 0.0 0.0 0.00 0.00 0.00 51 949.0
20260502130636 71 0.0 0.0 0.00 0.00 0.00 59 950.0
20260502130336 70 0.0 0.0 0.00 0.00 0.00 60 950.0
20260502123636 70 0.0 0.0 0.00 0.00 0.00 62 951.1
20260502123335 70 0.0 0.0 0.00 0.00 0.00 62 951.1
20260502123036 69 0.0 0.0 0.00 0.00 0.00 62 951.0
20260502122736 69 0.0 0.0 0.00 0.00 0.00 63 951.0
20260502122136 68 0.0 0.0 0.00 0.00 0.00 64 951.0
20260502121836 68 0.0 0.0 0.00 0.00 0.00 64 951.0
20260502121536 68 0.0 0.0 0.00 0.00 0.00 64 951.0
20260502121235 67 0.0 0.0 0.00 0.00 0.00 65 951.0
20260502120936 67 0.0 0.0 0.00 0.00 0.00 65 951.0
20260502120636 66 0.0 0.0 0.00 0.00 0.00 63 952.0
20260502120336 66 0.0 0.0 0.00 0.00 0.00 63 952.0
20260502115736 66 0.0 0.0 0.00 0.00 0.00 63 952.0
20260502114835 67 0.0 0.0 0.00 0.00 0.00 60 952.0
20260502114536 68 0.0 0.0 0.00 0.00 0.00 57 951.0
20260502113936 69 0.0 0.0 0.00 0.00 0.00 57 951.7
20260502113636 70 0.0 0.0 0.00 0.00 0.00 54 951.0
20260502113336 70 0.0 0.0 0.00 0.00 0.00 54 951.0
20260502113035 70 0.0 0.0 0.00 0.00 0.00 52 951.0
20260502112736 70 0.0 0.0 0.00 0.00 0.00 52 951.0
20260502112136 71 0.0 0.0 0.00 0.00 0.00 51 951.0
20260502111836 71 0.0 0.0 0.00 0.00 0.00 51 951.0
20260502111535 72 0.0 0.0 0.00 0.00 0.00 49 951.0
20260502111236 73 0.0 0.0 0.00 0.00 0.00 48 951.0
20260502110936 73 0.0 0.0 0.00 0.00 0.00 48 951.0
20260502110635 74 0.0 0.0 0.00 0.00 0.00 52 951.0
20260502110336 74 0.0 0.0 0.00 0.00 0.00 52 951.0
20260502110035 74 0.0 0.0 0.00 0.00 0.00 52 951.0
20260502105736 74 0.0 0.0 0.00 0.00 0.00 52 951.0
20260502105436 73 0.0 0.0 0.00 0.00 0.00 54 951.0
20260502105135 73 0.0 0.0 0.00 0.00 0.00 54 951.0
20260502104836 73 0.0 0.0 0.00 0.00 0.00 54 951.0
20260502104535 73 0.0 0.0 0.00 0.00 0.00 59 951.0
20260502104236 73 0.0 0.0 0.00 0.00 0.00 59 951.0
20260502103936 73 0.0 0.0 0.00 0.00 0.00 59 951.0
20260502103636 73 0.0 0.0 0.00 0.00 0.00 59 951.0
20260502103335 73 0.0 0.0 0.00 0.00 0.00 59 951.0
20260502103035 73 0.0 0.0 0.00 0.00 0.00 59 951.0
20260502102736 73 0.0 0.0 0.00 0.00 0.00 59 951.0
20260502102435 73 0.0 0.0 0.00 0.00 0.00 59 951.0
20260502102136 72 0.0 0.0 0.00 0.00 0.00 60 952.0
20260502101835 72 0.0 0.0 0.00 0.00 0.00 60 952.0
20260502101235 70 0.0 0.0 0.00 0.00 0.00 62 952.0
20260502100636 69 0.0 0.0 0.00 0.00 0.00 64 952.0
20260502100336 69 0.0 0.0 0.00 0.00 0.00 64 952.0
20260502091236 67 0.0 0.0 0.00 0.00 0.00 64 952.0
20260502090936 67 0.0 0.0 0.00 0.00 0.00 64 952.0
20260502090636 68 0.0 0.0 0.00 0.00 0.00 63 952.0
20260502090336 69 0.0 0.0 0.00 0.00 0.00 61 952.1
20260502071535 70 0.0 0.0 0.00 0.00 0.00 57 951.0
20260502071236 72 0.0 0.0 0.00 0.00 0.00 57 951.0
20260502070936 72 0.0 0.0 0.00 0.00 0.00 57 951.0
20260502070635 72 0.0 0.0 0.00 0.00 0.00 57 951.0
20260502070335 72 0.0 0.0 0.00 0.00 0.00 57 951.0
20260502070036 72 0.0 0.0 0.00 0.00 0.00 57 951.0
20260502065735 71 0.0 0.0 0.00 0.00 0.00 59 951.0
20260502065436 69 0.0 0.0 0.00 0.00 0.00 62 952.0
20260502065135 69 0.0 0.0 0.00 0.00 0.00 62 952.0
20260502064836 68 0.0 0.0 0.00 0.00 0.00 63 952.0
20260502064536 68 0.0 0.0 0.00 0.00 0.00 63 952.0
20260502064236 65 0.0 0.0 0.00 0.00 0.00 68 952.0
20260502063636 62 0.0 0.0 0.00 0.00 0.00 72 952.0
20260502063336 61 0.0 0.0 0.00 0.00 0.00 75 952.0
20260502063036 61 0.0 0.0 0.00 0.00 0.00 75 952.0
20260502062436 60 0.0 0.0 0.00 0.00 0.00 76 952.0
20260502062136 60 0.0 0.0 0.00 0.00 0.00 76 952.0
20260502061836 60 0.0 0.0 0.00 0.00 0.00 76 952.0
20260502061536 60 0.0 0.0 0.00 0.00 0.00 76 952.0
20260502061236 60 0.0 0.0 0.00 0.00 0.00 77 952.3
20260502060936 60 0.0 0.0 0.00 0.00 0.00 77 952.3
20260502060636 60 0.0 0.0 0.00 0.00 0.00 77 952.3
20260502060335 59 0.0 0.0 0.00 0.00 0.00 79 952.0
20260502060036 59 0.0 0.0 0.00 0.00 0.00 79 952.0
20260502055736 59 0.0 0.0 0.00 0.00 0.00 79 952.0
20260502055135 59 0.0 0.0 0.00 0.00 0.00 79 952.0
20260502054835 59 0.0 0.0 0.00 0.00 0.00 79 952.0
20260502053936 59 0.0 0.0 0.00 0.00 0.00 79 952.0
20260502053635 59 0.0 0.0 0.00 0.00 0.00 79 952.0
20260502053335 59 0.0 0.0 0.00 0.00 0.00 79 952.0
20260502052736 59 0.0 0.0 0.00 0.00 0.00 79 952.0
20260502052435 59 0.0 0.0 0.00 0.00 0.00 79 952.0
20260502052136 59 0.0 0.0 0.00 0.00 0.00 79 952.0
20260502051535 59 0.0 0.0 0.00 0.00 0.00 79 952.0
20260502051236 59 0.0 0.0 0.00 0.00 0.00 80 952.2
20260502050936 59 0.0 0.0 0.00 0.00 0.00 80 952.2
20260502050636 59 0.0 0.0 0.00 0.00 0.00 80 952.2
20260502050336 59 0.0 0.0 0.00 0.00 0.00 79 952.4
20260502050036 59 0.0 0.0 0.00 0.00 0.00 79 952.4
20260502045735 59 0.0 0.0 0.00 0.00 0.00 79 952.4
20260502045435 59 0.0 0.0 0.00 0.00 0.00 79 952.4
20260502045135 59 0.0 0.0 0.00 0.00 0.00 79 952.4
20260502044536 59 0.0 0.0 0.00 0.00 0.00 79 952.4
20260502044236 59 0.0 0.0 0.00 0.00 0.00 79 952.4
20260502043936 59 0.0 0.0 0.00 0.00 0.00 79 952.4
20260502043636 59 0.0 0.0 0.00 0.00 0.00 79 952.4
20260502043336 59 0.0 0.0 0.00 0.00 0.00 79 952.4
20260502043035 59 0.0 0.0 0.00 0.00 0.00 79 952.4
20260502042735 59 0.0 0.0 0.00 0.00 0.00 79 952.4
20260502042436 59 0.0 0.0 0.00 0.00 0.00 79 952.4
20260502042135 59 0.0 0.0 0.00 0.00 0.00 79 952.4
20260502041836 59 0.0 0.0 0.00 0.00 0.00 79 952.4
20260502041236 59 0.0 0.0 0.00 0.00 0.00 79 952.4
20260502040936 59 0.0 0.0 0.00 0.00 0.00 79 952.0
20260502040336 59 0.0 0.0 0.00 0.00 0.00 76 952.0
20260502040035 59 0.0 0.0 0.00 0.00 0.00 76 952.0
20260502035736 59 0.0 0.0 0.00 0.00 0.00 76 952.0
20260502035435 59 0.0 0.0 0.00 0.00 0.00 76 952.0
20260502035135 59 0.0 0.0 0.00 0.00 0.00 76 952.0
20260502034235 59 0.0 0.0 0.00 0.00 0.00 76 952.0
20260502033936 59 0.0 0.0 0.00 0.00 0.00 76 952.0
20260502033635 60 0.0 0.0 0.00 0.00 0.00 76 952.6
20260502033336 60 0.0 0.0 0.00 0.00 0.00 76 952.6
20260502033036 60 0.0 0.0 0.00 0.00 0.00 76 952.6
20260502032736 60 0.0 0.0 0.00 0.00 0.00 76 952.6
20260502032436 60 0.0 0.0 0.00 0.00 0.00 76 952.6
20260502032136 60 0.0 0.0 0.00 0.00 0.00 76 952.6
20260502031535 60 0.0 0.0 0.00 0.00 0.00 76 952.6
20260502031236 60 0.0 0.0 0.00 0.00 0.00 73 952.0
20260502030935 60 0.0 0.0 0.00 0.00 0.00 73 952.0
20260502030336 60 0.0 0.0 0.00 0.00 0.00 73 952.0
20260502030036 60 0.0 0.0 0.00 0.00 0.00 73 952.0
20260502025736 60 0.0 0.0 0.00 0.00 0.00 73 952.0
20260502025436 60 0.0 0.0 0.00 0.00 0.00 73 952.0
20260502025136 60 0.0 0.0 0.00 0.00 0.00 73 952.0
20260502024836 60 0.0 0.0 0.00 0.00 0.00 73 952.0
20260502024236 60 0.0 0.0 0.00 0.00 0.00 73 952.0
20260502023636 61 0.0 0.0 0.00 0.00 0.00 74 952.0
20260502023336 61 0.0 0.0 0.00 0.00 0.00 74 952.0
20260502023036 61 0.0 0.0 0.00 0.00 0.00 74 952.0
20260502022736 61 0.0 0.0 0.00 0.00 0.00 74 952.0
20260502022436 61 0.0 0.0 0.00 0.00 0.00 74 952.0
20260502022136 61 0.0 0.0 0.00 0.00 0.00 74 952.0
20260502021836 61 0.0 0.0 0.00 0.00 0.00 74 952.9
20260502021536 61 0.0 0.0 0.00 0.00 0.00 75 953.0
20260502021235 61 0.0 0.0 0.00 0.00 0.00 75 953.0
20260502020935 61 0.0 0.0 0.00 0.00 0.00 75 953.0
20260502020636 61 0.0 0.0 0.00 0.00 0.00 75 953.0
20260502020335 61 0.0 0.0 0.00 0.00 0.00 75 953.0
20260502015735 61 0.0 0.0 0.00 0.00 0.00 75 953.0
20260502015436 61 0.0 0.0 0.00 0.00 0.00 75 953.0
20260502015136 61 0.0 0.0 0.00 0.00 0.00 75 953.0
20260502014836 61 0.0 0.0 0.00 0.00 0.00 75 953.0
20260502014536 61 0.0 0.0 0.00 0.00 0.00 75 953.0
20260502014236 61 0.0 0.0 0.00 0.00 0.00 75 953.0
20260502013936 61 0.0 0.0 0.00 0.00 0.00 75 953.0
20260502013635 61 0.0 0.0 0.00 0.00 0.00 75 953.0
20260502013336 61 0.0 0.0 0.00 0.00 0.00 75 953.0
20260502013036 60 0.0 0.0 0.00 0.00 0.00 75 953.3
20260502012736 60 0.0 0.0 0.00 0.00 0.00 75 953.3
20260502012435 60 0.0 0.0 0.00 0.00 0.00 75 953.3
20260502012135 60 0.0 0.0 0.00 0.00 0.00 76 953.0
20260502011836 60 0.0 0.0 0.00 0.00 0.00 76 953.0
20260502011535 60 0.0 0.0 0.00 0.00 0.00 76 953.0
20260502011236 60 0.0 0.0 0.00 0.00 0.00 76 953.0
20260502010935 60 0.0 0.0 0.00 0.00 0.00 76 953.0
20260502010636 60 0.0 0.0 0.00 0.00 0.00 76 953.0
20260502010036 60 0.0 0.0 0.00 0.00 0.00 76 953.0
20260502005135 60 0.0 0.0 0.00 0.00 0.00 76 953.0
20260502004835 60 0.0 0.0 0.00 0.00 0.00 76 953.0
20260502004535 60 0.0 0.0 0.00 0.00 0.00 76 953.0
20260502004236 60 0.0 0.0 0.00 0.00 0.00 76 953.0
20260502003936 60 0.0 0.0 0.00 0.00 0.00 76 953.3
20260502003336 60 0.0 0.0 0.00 0.00 0.00 76 953.3
20260502003036 60 0.0 0.0 0.00 0.00 0.00 77 953.0
20260502002736 60 0.0 0.0 0.00 0.00 0.00 77 953.0
20260502002435 60 0.0 0.0 0.00 0.00 0.00 77 953.0
20260502001836 60 0.0 0.0 0.00 0.00 0.00 77 953.0
20260502001536 60 0.0 0.0 0.00 0.00 0.00 77 953.0
20260502001236 60 0.0 0.0 0.00 0.00 0.00 77 953.0
20260502000936 61 0.0 0.0 0.00 0.00 0.00 76 953.0
20260502000636 61 0.0 0.0 0.00 0.00 0.00 76 953.0
20260502000336 61 0.0 0.0 0.00 0.00 0.00 76 953.0
20260502000036 61 0.0 0.0 0.00 0.00 0.00 76 953.0
20260501235736 61 0.0 0.0 0.00 0.00 0.00 76 953.0
20260501235435 61 0.0 0.0 0.00 0.00 0.00 76 953.0
20260501235136 61 0.0 0.0 0.00 0.00 0.00 76 953.0
20260501234836 60 0.0 0.0 0.00 0.00 0.00 76 953.8
20260501233936 60 0.0 0.0 0.00 0.00 0.00 76 953.8
20260501233636 60 0.0 0.0 0.00 0.00 0.00 76 953.8
20260501233336 60 0.0 0.0 0.00 0.00 0.00 76 953.8
20260501233036 61 0.0 0.0 0.00 0.00 0.00 74 953.0
20260501232736 61 0.0 0.0 0.00 0.00 0.00 74 953.0
20260501232436 61 0.0 0.0 0.00 0.00 0.00 74 953.0
20260501232135 61 0.0 0.0 0.00 0.00 0.00 74 953.0
20260501231536 62 0.0 0.0 0.00 0.00 0.00 76 954.0
20260501231236 62 0.0 0.0 0.00 0.00 0.00 76 954.0
20260501230936 62 0.0 0.0 0.00 0.00 0.00 76 954.0
20260501230636 62 0.0 0.0 0.00 0.00 0.00 76 954.0
20260501230035 63 0.0 0.0 0.00 0.00 0.00 75 954.1
20260501225736 63 0.0 0.0 0.00 0.00 0.00 75 954.1
20260501225435 63 0.0 0.0 0.00 0.00 0.00 75 954.1
20260501225135 63 0.0 0.0 0.00 0.00 0.00 75 954.1
20260501224836 63 0.0 0.0 0.00 0.00 0.00 75 954.1
20260501224536 63 0.0 0.0 0.00 0.00 0.00 75 954.1
20260501224235 63 0.0 0.0 0.00 0.00 0.00 75 954.1
20260501223935 63 0.0 0.0 0.00 0.00 0.00 75 954.1
20260501223636 63 0.0 0.0 0.00 0.00 0.00 75 954.1
20260501223336 63 0.0 0.0 0.00 0.00 0.00 74 954.0
20260501223036 63 0.0 0.0 0.00 0.00 0.00 74 954.0
20260501222736 63 0.0 0.0 0.00 0.00 0.00 74 954.0
20260501222435 63 0.0 0.0 0.00 0.00 0.00 74 954.0
20260501221836 63 0.0 0.0 0.00 0.00 0.00 74 954.0
20260501221536 63 0.0 0.0 0.00 0.00 0.00 74 954.0
20260501221235 63 0.0 0.0 0.00 0.00 0.00 74 954.0
20260501220636 63 0.0 0.0 0.00 0.00 0.00 74 954.0
20260501220336 64 0.0 0.0 0.00 0.00 0.00 71 954.0
20260501220036 64 0.0 0.0 0.00 0.00 0.00 71 954.0
20260501215436 64 0.0 0.0 0.00 0.00 0.00 71 954.0
20260501215135 64 0.0 0.0 0.00 0.00 0.00 71 954.0
20260501214836 64 0.0 0.0 0.00 0.00 0.00 70 954.5
20260501214536 64 0.0 0.0 0.00 0.00 0.00 70 954.5
20260501214236 64 0.0 0.0 0.00 0.00 0.00 70 954.0
20260501213935 64 0.0 0.0 0.00 0.00 0.00 70 954.0
20260501213636 65 0.0 0.0 0.00 0.00 0.00 67 954.0
20260501213336 65 0.0 0.0 0.00 0.00 0.00 67 954.0
20260501212736 65 0.0 0.0 0.00 0.00 0.00 67 954.0
20260501212436 65 0.0 0.0 0.00 0.00 0.00 67 954.0
20260501212136 65 0.0 0.0 0.00 0.00 0.00 67 954.0
20260501211835 66 0.0 0.0 0.00 0.00 0.00 63 954.0
20260501211536 67 0.0 0.0 0.00 0.00 0.00 57 954.0
20260501211235 67 0.0 0.0 0.00 0.00 0.00 56 954.0
20260501210936 67 0.0 0.0 0.00 0.00 0.00 56 953.0
20260501210335 66 0.0 0.0 0.00 0.00 0.00 56 953.0
20260501210035 66 0.0 0.0 0.00 0.00 0.00 56 953.0
20260501205735 66 0.0 0.0 0.00 0.00 0.00 56 953.0
20260501205436 66 0.0 0.0 0.00 0.00 0.00 56 953.0
20260501205136 66 0.0 0.0 0.00 0.00 0.00 55 953.4
20260501204836 66 0.0 0.0 0.00 0.00 0.00 55 953.4
20260501204536 66 0.0 0.0 0.00 0.00 0.00 53 953.0
20260501203936 66 0.0 0.0 0.00 0.00 0.00 53 953.0
20260501203636 66 0.0 0.0 0.00 0.00 0.00 53 953.0
20260501203335 66 0.0 0.0 0.00 0.00 0.00 53 953.0
20260501203036 66 0.0 0.0 0.00 0.00 0.00 53 953.0
20260501202735 67 0.0 0.0 0.00 0.00 0.00 52 953.0
20260501202136 67 0.0 0.0 0.00 0.00 0.00 52 953.0
20260501201836 67 0.0 0.0 0.00 0.00 0.00 52 953.0
20260501201536 67 0.0 0.0 0.00 0.00 0.00 52 953.0
20260501201236 67 0.0 0.0 0.00 0.00 0.00 52 953.0
20260501200936 67 0.0 0.0 0.00 0.00 0.00 52 953.0
20260501200635 67 0.0 0.0 0.00 0.00 0.00 52 953.0
20260501200335 67 0.0 0.0 0.00 0.00 0.00 52 953.0
20260501200036 67 0.0 0.0 0.00 0.00 0.00 52 953.0
20260501195736 67 0.0 0.0 0.00 0.00 0.00 52 953.0
20260501195436 67 0.0 0.0 0.00 0.00 0.00 52 953.0
20260501195136 67 0.0 0.0 0.00 0.00 0.00 52 952.0
20260501194835 67 0.0 0.0 0.00 0.00 0.00 52 952.0
20260501194536 67 0.0 0.0 0.00 0.00 0.00 52 952.0
20260501194236 67 0.0 0.0 0.00 0.00 0.00 52 952.0
20260501193936 67 0.0 0.0 0.00 0.00 0.00 52 952.0
20260501193636 67 0.0 0.0 0.00 0.00 0.00 52 952.0
20260501193036 67 0.0 0.0 0.00 0.00 0.00 52 952.0
20260501192735 67 0.0 0.0 0.00 0.00 0.00 52 952.0
20260501192436 68 0.0 0.0 0.00 0.00 0.00 50 952.7
20260501192135 68 0.0 0.0 0.00 0.00 0.00 50 952.7
20260501191836 68 0.0 0.0 0.00 0.00 0.00 50 952.7
20260501191536 68 0.0 0.0 0.00 0.00 0.00 50 952.7
20260501191236 68 0.0 0.0 0.00 0.00 0.00 50 952.7
20260501190936 68 0.0 0.0 0.00 0.00 0.00 50 952.7
20260501190635 68 0.0 0.0 0.00 0.00 0.00 50 952.7
20260501190335 68 0.0 0.0 0.00 0.00 0.00 50 952.7
20260501190036 68 0.0 0.0 0.00 0.00 0.00 50 952.7
20260501185736 68 0.0 0.0 0.00 0.00 0.00 50 952.7
20260501185435 68 0.0 0.0 0.00 0.00 0.00 50 952.7
20260501185136 68 0.0 0.0 0.00 0.00 0.00 50 952.0
20260501184835 68 0.0 0.0 0.00 0.00 0.00 50 952.0
20260501184536 69 0.0 0.0 0.00 0.00 0.00 46 952.0
20260501184236 69 0.0 0.0 0.00 0.00 0.00 46 952.0
20260501183936 69 0.0 0.0 0.00 0.00 0.00 46 952.0
20260501183636 69 0.0 0.0 0.00 0.00 0.00 46 952.0
20260501183336 69 0.0 0.0 0.00 0.00 0.00 46 952.0
20260501183036 69 0.0 0.0 0.00 0.00 0.00 46 952.0
20260501182736 69 0.0 0.0 0.00 0.00 0.00 46 952.0
20260501182435 69 0.0 0.0 0.00 0.00 0.00 46 952.0
20260501182141 69 0.0 0.0 0.00 0.00 0.00 46 952.0
20260501181836 69 0.0 0.0 0.00 0.00 0.00 46 952.0
20260501181536 69 0.0 0.0 0.00 0.00 0.00 46 952.0
20260501181236 69 0.0 0.0 0.00 0.00 0.00 46 952.0
20260501180936 69 0.0 0.0 0.00 0.00 0.00 46 952.0
20260501180336 69 0.0 0.0 0.00 0.00 0.00 46 952.0
20260501180035 69 0.0 0.0 0.00 0.00 0.00 46 952.4
20260501175736 69 0.0 0.0 0.00 0.00 0.00 46 952.4
20260501175436 70 0.0 0.0 0.00 0.00 0.00 44 952.0
20260501175136 70 0.0 0.0 0.00 0.00 0.00 44 952.0
20260501174836 70 0.0 0.0 0.00 0.00 0.00 44 952.0
20260501174536 70 0.0 0.0 0.00 0.00 0.00 44 952.0
20260501174236 70 0.0 0.0 0.00 0.00 0.00 44 952.0
20260501173936 70 0.0 0.0 0.00 0.00 0.00 44 952.0
20260501173636 70 0.0 0.0 0.00 0.00 0.00 44 952.0
20260501173336 70 0.0 0.0 0.00 0.00 0.00 44 952.0
20260501173036 70 0.0 0.0 0.00 0.00 0.00 44 952.0
20260501172436 70 0.0 0.0 0.00 0.00 0.00 44 952.0
20260501172135 70 0.0 0.0 0.00 0.00 0.00 44 952.0
20260501171835 70 0.0 0.0 0.00 0.00 0.00 44 952.0
20260501171536 70 0.0 0.0 0.00 0.00 0.00 44 952.0
20260501171236 70 0.0 0.0 0.00 0.00 0.00 44 952.0
20260501170936 70 0.0 0.0 0.00 0.00 0.00 44 952.0
20260501170635 70 0.0 0.0 0.00 0.00 0.00 44 952.0
20260501170335 70 0.0 0.0 0.00 0.00 0.00 44 952.0
20260501170035 70 0.0 0.0 0.00 0.00 0.00 44 952.0
20260501165736 70 0.0 0.0 0.00 0.00 0.00 44 952.3
20260501165435 71 0.0 0.0 0.00 0.00 0.00 42 952.0
20260501165135 71 0.0 0.0 0.00 0.00 0.00 42 952.0
20260501164836 71 0.0 0.0 0.00 0.00 0.00 42 952.0
20260501164235 71 0.0 0.0 0.00 0.00 0.00 42 952.0
20260501163936 71 0.0 0.0 0.00 0.00 0.00 42 952.0
20260501163635 71 0.0 0.0 0.00 0.00 0.00 42 952.0
20260501163336 71 0.0 0.0 0.00 0.00 0.00 42 952.0
20260501163035 71 0.0 0.0 0.00 0.00 0.00 42 952.0
20260501162136 71 0.0 0.0 0.00 0.00 0.00 42 952.0
20260501161536 71 0.0 0.0 0.00 0.00 0.00 41 952.4
20260501161236 71 0.0 0.0 0.00 0.00 0.00 41 952.4
20260501160936 71 0.0 0.0 0.00 0.00 0.00 41 952.4
20260501160636 71 0.0 0.0 0.00 0.00 0.00 41 952.4
20260501160036 72 0.0 0.0 0.00 0.00 0.00 41 952.0
20260501155736 72 0.0 0.0 0.00 0.00 0.00 41 952.0